Location: Kutna Hora
(49.9500°N, 15.2670°E)
Time: 11:15:35
(UTC+01:00)

ISS - Visible Passes

Search period start: 28 November 2023 00:00
Search period end: 08 December 2023 00:00
Orbit: 416 x 418 km, 51.6° (Epoch: 28 November)

Date Brightness Start Highest point End Pass type
(mag) Time Alt. Az. Time Alt. Az. Time Alt. Az.
28 Nov -3.7 17:29:29 10° WNW 17:32:50 65° N 17:34:22 29° E visible
28 Nov -0.9 19:06:18 10° WNW 19:07:17 18° W 19:07:17 18° W visible
29 Nov -3.6 16:41:09 10° W 16:44:29 62° N 16:47:50 10° E visible
29 Nov -3.5 18:17:59 10° WNW 18:21:00 66° WSW 18:21:00 66° WSW visible
30 Nov -3.8 17:29:37 10° WNW 17:33:00 86° NNE 17:34:45 26° ESE visible
30 Nov -0.8 19:06:35 10° W 19:07:40 17° W 19:07:40 17° W visible
01 Dec -3.8 16:41:13 10° WNW 16:44:34 72° N 16:47:55 10° E visible
01 Dec -2.7 18:18:02 10° W 18:21:13 40° SSW 18:21:29 39° SSW visible
02 Dec -3.2 17:29:32 10° WNW 17:32:51 57° SSW 17:35:25 15° SE visible
02 Dec -0.6 19:07:19 10° WSW 19:08:20 13° WSW 19:08:20 13° WSW visible
03 Dec -3.6 16:41:01 10° WNW 16:44:23 78° SSW 16:47:44 10° ESE visible
03 Dec -1.3 18:18:13 10° W 18:20:46 20° SW 18:22:26 14° S visible
04 Dec -1.8 17:29:24 10° W 17:32:23 29° SSW 17:35:20 10° SSE visible
05 Dec -2.4 16:40:41 10° W 16:43:53 42° SSW 16:47:05 10° SE visible
06 Dec -0.6 17:29:39 10° WSW 17:31:32 14° SW 17:33:26 10° S visible
07 Dec -0.9 16:40:26 10° W 16:43:04 21° SW 16:45:40 10° SSE visible
